Theta_e
292 292 293 293 294 294 295 296 296 297 297 298 298 298 298 298 298 296 297 297 298 299 299 299 300 300 303 304 306 306 307 308 308 308 308 308 311 311 311 311 314 313 314 315 314 314 315 312 313 316 319 317 315 315
291 292 293 293 294 294 295 296 296 297 298 298 299 299 297 298 298 295 297 296 297 298 298 299 299 299 300 302 304 305 305 306 307 307 308 309 312 314 311 311 313 316 312 313 312 312 312 315 317 315 314 315 314 313
292 293 293 293 294 295 295 296 298 299 299 299 299 299 298 298 297 296 296 296 297 298 299 299 300 300 301 300 302 302 306 306 306 305 309 311 312 311 313 311 310 312 312 315 315 312 314 315 314 313 312 312 311 310
293 293 294 295 296 296 297 298 299 299 299 299 299 300 299 298 298 297 296 296 297 298 298 300 300 300 300 301 302 301 304 304 305 304 305 309 310 310 312 310 311 311 313 313 314 313 313 312 311 310 310 309 308 307
293 295 296 297 298 298 299 299 299 299 299 300 300 300 299 298 298 298 297 297 297 299 302 302 300 301 301 300 301 303 304 306 306 306 306 308 308 310 311 311 310 311 311 313 316 311 313 310 307 306 306 305 305 305
294 297 299 298 299 299 299 299 299 299 300 300 300 300 299 299 298 299 295 297 297 298 301 306 303 302 301 302 302 304 305 306 305 305 305 308 308 310 311 311 309 308 307 306 307 305 308 306 302 301 302 301 301 300
297 297 297 297 298 299 300 300 300 299 299 300 300 300 300 299 299 297 300 299 298 298 302 303 304 304 303 303 304 304 305 305 305 303 305 308 308 309 312 309 305 301 303 303 301 303 307 301 300 297 297 298 297 294
296 295 295 299 299 299 300 300 300 300 299 300 300 300 300 299 298 298 300 299 298 299 301 303 306 305 304 306 306 305 304 303 303 305 306 307 307 309 310 302 299 297 299 298 297 300 299 298 297 296 295 295 295 291
295 295 298 298 298 300 300 300 301 301 300 300 301 300 297 296 297 298 299 299 299 300 302 304 306 307 304 304 305 305 302 304 304 306 307 307 308 303 297 296 295 294 294 294 295 297 297 296 294 292 291 290 289 287
294 296 299 300 299 299 300 300 300 300 301 299 297 296 297 298 298 299 299 296 299 301 303 305 306 306 305 306 307 306 306 307 307 306 306 306 298 295 294 293 292 292 292 292 293 293 292 293 292 289 287 286 286 284
297 299 300 300 300 300 300 300 300 298 298 297 298 300 298 299 298 298 300 303 301 304 304 305 305 306 305 306 306 306 307 307 308 308 308 306 299 293 291 290 289 289 290 289 290 289 289 289 289 287 286 284 283 282
298 298 299 297 297 299 299 298 298 299 299 300 298 297 297 298 300 303 305 304 305 305 305 306 306 305 305 304 306 303 306 307 308 306 309 301 293 290 289 288 287 287 287 287 286 286 285 285 285 284 283 281 281 280
299 297 298 299 299 298 299 299 299 298 299 299 299 299 302 299 305 305 304 305 304 303 302 304 304 302 303 303 305 307 306 307 304 307 300 294 290 288 288 287 285 284 284 284 284 282 282 281 281 280 280 279 278 278
298 298 296 296 298 297 297 296 296 296 296 298 299 296 300 299 297 297 299 300 297 299 300 304 303 304 301 303 303 307 301 302 305 305 296 290 288 287 287 286 284 283 283 282 281 280 280 280 279 279 278 278 277 277
292 295 296 295 294 293 293 292 293 294 294 294 296 296 294 293 294 295 296 297 296 296 299 303 304 302 302 301 301 301 301 302 297 295 291 287 286 286 285 285 284 283 283 282 281 280 279 279 278 277 277 276 276 275
294 295 292 290 290 291 293 293 292 292 291 291 291 295 295 296 295 295 296 296 295 296 300 304 303 300 298 299 298 298 301 297 292 289 287 286 285 284 284 283 283 282 282 281 280 279 279 278 277 276 276 275 275 275
297 295 291 290 290 291 292 292 291 290 290 290 291 291 294 293 293 293 293 294 294 299 301 302 299 297 297 297 294 291 291 289 287 285 285 284 284 283 282 282 282 282 281 281 280 280 279 279 278 278 277 276 275 274
298 291 292 293 295 293 291 291 291 290 290 291 291 290 290 291 292 291 291 294 296 296 296 294 295 294 294 295 291 287 286 286 285 284 283 283 283 283 282 282 281 281 281 280 280 280 279 279 278 277 277 276 276 275
297 295 295 294 294 293 292 291 291 290 290 290 290 290 290 290 289 289 291 291 291 292 292 292 291 290 289 288 287 286 286 285 284 283 282 282 281 281 281 281 280 280 280 280 279 279 278 278 278 278 278 278 277 276
293 292 292 292 294 293 292 292 292 291 292 290 290 289 289 289 289 289 290 289 289 288 287 288 288 288 288 287 287 286 286 285 285 284 283 282 281 281 282 281 280 279 279 279 279 278 278 277 276 275 275 276 276 275
293 292 293 294 293 293 293 292 291 291 291 290 290 289 289 289 289 289 287 286 287 287 286 286 285 284 285 285 285 284 284 285 285 286 283 282 281 281 280 280 280 280 280 279 278 277 276 276 275 275 275 274 273 272
294 294 294 293 293 292 292 291 291 291 291 291 291 291 291 290 288 287 286 285 285 286 285 284 284 283 282 282 281 281 281 281 281 281 280 280 281 280 280 279 279 279 278 278 277 277 275 274 273 274 273 272 272 271
293 294 295 294 294 292 292 293 293 293 292 291 291 291 290 289 287 287 285 283 283 283 282 282 281 281 281 280 280 281 281 281 280 280 280 279 278 278 277 277 277 277 277 275 275 275 273 271 271 272 272 272 272 270
291 291 294 295 293 292 292 292 292 292 292 292 290 290 290 288 288 287 285 284 283 282 282 282 282 281 281 281 280 279 279 279 279 278 278 278 278 276 276 275 275 274 274 274 274 273 273 272 270 272 271 272 271 271
293 288 292 293 294 293 292 292 292 292 292 291 290 289 288 289 289 288 286 283 284 283 282 282 283 284 282 281 279 278 278 279 279 277 276 277 276 276 275 274 273 272 272 274 273 273 272 271 271 271 271 271 270 270
289 287 291 293 293 294 293 293 293 292 291 289 288 288 289 289 288 287 286 285 284 282 283 283 283 282 282 281 280 278 277 276 277 277 275 274 274 275 276 275 275 273 271 271 272 272 271 270 270 269 270 268 268 267
289 288 287 287 291 291 292 292 291 291 290 288 288 288 289 287 285 283 284 283 283 281 281 281 281 281 280 278 276 275 274 273 274 273 272 272 271 271 272 272 272 270 270 269 270 270 271 270 270 269 269 269 269 269
285 286 286 286 286 287 288 288 288 288 286 285 287 285 286 286 284 283 282 280 279 279 278 278 278 277 277 276 275 274 272 272 272 272 272 271 271 270 269 268 267 267 267 267 267 268 268 269 269 269 269 268 268 267
285 283 281 279 282 282 282 284 284 281 281 285 285 283 280 280 280 279 279 278 278 278 277 276 275 275 274 274 274 274 274 274 274 273 273 274 274 270 269 269 268 268 268 268 267 266 266 266 267 266 267 267 267 267
283 284 281 280 280 280 279 281 280 279 280 279 278 278 278 278 277 277 278 278 279 278 277 276 276 276 276 275 273 273 272 271 270 271 273 273 271 269 269 269 268 268 267 268 268 268 267 267 267 266 266 266 267 267
284 284 282 281 280 279 279 281 281 282 282 281 280 278 277 276 275 275 276 276 276 276 276 276 275 275 274 275 275 274 272 268 267 267 268 269 268 268 267 266 266 266 266 266 266 266 266 265 267 267 267 267 266 265
284 282 281 279 279 280 280 283 283 282 281 281 280 280 280 280 278 276 274 276 276 277 275 276 275 273 272 270 269 269 269 268 267 267 267 267 267 265 265 265 265 265 265 265 266 265 266 265 265 265 265 265 265 264
284 283 282 281 280 281 281 284 283 282 282 282 280 281 280 281 278 274 272 272 275 275 275 273 271 270 269 269 268 267 266 266 265 265 264 264 264 264 265 265 265 265 264 265 265 265 265 265 265 264 263 263 263 263
Wind_Speed
30 31 34 37 35 32 31 30 29 29 29 28 24 23 25 26 40 42 29 23 23 3 13 17 17 15 11 8 5 2 1 2 3 4 3 6 6 7 8 7 9 11 9 6 7 6 12 6 6 8 10 10 9 10
33 35 38 36 34 33 32 31 34 32 29 24 21 23 23 20 37 38 16 25 20 6 6 11 26 32 21 16 2 3 2 2 2 4 4 4 5 3 7 5 15 5 8 6 9 7 8 6 13 8 8 8 11 12
36 38 37 36 36 34 33 36 30 24 21 22 21 21 25 27 36 38 27 18 17 3 4 13 15 20 16 24 14 1 4 3 2 5 4 3 5 4 3 5 5 4 4 2 2 6 5 10 15 11 11 12 14 12
38 38 40 39 37 36 31 28 25 23 20 19 20 23 28 30 33 40 30 26 22 2 5 12 20 28 32 17 18 25 16 4 1 2 3 3 1 4 3 5 7 3 4 5 5 10 5 13 12 8 15 14 13 12
38 39 40 32 27 25 24 23 23 23 22 20 19 24 28 31 32 34 30 26 31 7 3 8 20 21 20 28 22 17 10 8 2 1 2 2 5 5 6 6 5 7 4 2 2 8 10 10 9 14 14 12 11 11
36 33 24 25 24 26 28 31 30 26 22 19 19 25 31 29 28 20 2 24 36 28 3 3 7 16 18 15 21 12 8 4 2 1 2 4 10 3 2 2 9 10 12 14 5 10 9 14 15 14 11 12 13 13
28 24 23 24 27 28 32 32 33 30 24 21 21 28 26 30 30 5 2 6 36 30 3 2 4 2 12 8 5 5 9 2 2 2 3 3 4 4 2 2 5 9 11 12 13 14 7 15 8 11 11 11 12 14
22 22 25 24 24 23 17 20 24 31 27 24 24 25 28 28 16 7 2 7 36 8 2 2 2 3 7 3 4 2 2 2 3 2 2 3 3 4 1 5 9 11 10 12 13 9 7 7 9 13 13 12 10 11
22 22 21 28 20 11 10 3 17 27 29 26 26 32 22 7 3 6 7 26 22 3 3 3 3 3 4 2 3 3 3 3 4 3 4 4 2 3 4 6 8 10 9 11 12 11 10 10 11 11 11 10 9 9
19 22 24 15 3 6 4 14 25 30 40 49 28 5 3 8 23 24 5 2 2 2 3 3 1 2 6 5 4 4 2 3 3 5 2 2 3 6 7 8 8 8 8 10 9 10 9 9 8 9 9 8 9 9
15 14 8 9 5 8 15 28 44 52 36 8 3 2 18 28 5 2 3 3 4 5 4 4 3 4 1 3 3 2 1 4 3 3 5 4 3 3 6 9 10 10 10 10 8 8 8 8 8 8 10 10 13 13
11 17 20 17 24 35 45 47 31 12 6 9 15 14 8 2 1 4 4 4 5 4 2 5 3 3 3 1 2 3 2 2 1 4 2 4 4 7 8 9 10 10 9 11 13 11 13 13 13 13 13 14 15 15
11 16 16 20 25 24 11 5 21 34 23 9 5 3 2 2 4 3 6 4 4 2 2 2 4 2 2 2 1 1 2 2 2 2 3 4 7 7 7 6 8 10 12 13 13 15 16 17 17 16 15 15 16 17
13 15 17 19 29 27 22 16 12 9 6 3 3 4 4 3 4 4 5 4 2 2 2 4 3 2 2 2 2 2 2 2 2 3 4 6 7 6 7 7 7 8 8 9 11 14 13 14 15 16 17 16 17 17
16 9 13 13 13 12 10 10 9 7 5 4 4 4 4 2 3 2 1 3 3 1 1 3 3 2 2 2 2 2 2 3 5 4 4 6 7 7 7 7 7 7 7 7 12 12 13 14 15 17 17 17 18 18
10 8 8 7 8 8 8 8 9 6 3 4 6 2 3 6 6 7 6 5 4 3 3 2 3 3 3 2 2 4 4 4 4 4 6 7 8 8 8 8 9 11 12 12 13 14 14 14 15 16 16 16 16 15
5 4 6 8 13 11 9 7 7 5 4 4 4 6 4 6 6 5 5 4 4 2 2 2 3 3 2 3 3 5 4 5 6 6 6 8 8 7 7 9 10 11 12 12 13 13 13 12 12 13 14 12 13 13
3 11 11 8 7 7 7 7 4 4 6 5 4 6 7 6 6 6 5 6 4 3 3 3 3 5 5 3 3 4 5 6 6 6 5 6 8 8 9 9 9 10 10 10 10 10 10 10 10 10 10 10 10 9
11 8 6 6 7 5 3 4 4 4 4 3 4 4 4 5 7 6 5 5 8 7 3 3 5 3 3 3 7 6 6 5 6 6 6 10 9 9 9 9 10 9 9 8 8 8 9 9 7 6 5 5 7 6
13 14 12 7 4 4 4 3 4 4 3 3 4 6 4 4 3 6 6 6 7 4 5 4 4 6 6 6 6 6 5 6 6 6 5 5 7 7 8 7 8 8 8 7 7 5 6 7 7 7 8 8 7 7
15 10 6 6 7 9 4 3 4 5 4 4 5 4 4 6 7 7 6 6 6 4 3 5 7 8 14 12 10 11 12 8 7 4 7 5 6 7 6 5 4 5 5 5 5 5 7 6 5 6 6 7 7 7
8 6 7 8 4 4 4 6 4 4 3 4 3 3 3 4 4 4 5 6 4 5 4 6 6 6 7 8 10 10 9 11 11 12 12 7 4 5 5 4 3 5 5 5 6 6 5 6 5 4 4 4 6 6
6 4 4 3 4 4 3 0 3 2 3 4 3 3 3 3 2 2 4 3 3 5 9 8 11 12 11 10 10 9 8 10 9 8 7 7 7 5 5 5 5 3 3 4 4 5 6 3 2 2 2 3 6 5
4 4 3 3 4 4 3 2 2 3 3 2 3 4 3 3 2 3 4 3 4 7 5 8 9 6 8 9 6 8 8 8 8 8 5 4 6 6 5 5 5 5 5 4 3 4 3 4 0 1 2 1 4 4
3 5 3 4 3 4 4 4 2 3 3 3 3 3 3 3 2 3 3 4 5 5 4 4 3 4 5 5 7 6 6 5 6 7 7 5 4 4 4 3 4 4 3 3 2 3 3 3 2 3 2 4 4 3
5 5 4 2 2 3 4 4 4 5 4 3 3 3 2 2 3 4 3 5 6 5 3 3 4 4 5 7 5 7 7 5 3 8 6 6 6 6 5 3 1 7 5 4 4 1 3 1 2 2 3 3 1 3
3 3 3 3 2 5 5 5 6 4 4 3 3 3 3 3 3 3 4 8 6 9 8 7 5 6 8 9 8 7 7 8 10 8 6 6 7 7 7 10 7 6 4 4 3 5 6 1 2 2 4 4 3 3
3 5 4 3 5 5 4 4 3 3 3 1 3 3 2 3 3 3 3 12 13 11 11 11 11 11 10 9 8 7 7 6 7 6 6 6 7 7 6 5 5 3 3 2 3 3 4 5 4 4 4 4 6 6
4 4 4 5 5 6 7 5 3 3 3 1 3 3 3 3 7 12 13 12 11 11 11 10 10 10 10 8 8 7 5 6 4 2 3 2 4 6 5 4 3 3 3 3 4 0 3 4 5 5 5 6 7 7
3 2 4 6 5 5 5 5 4 3 6 8 7 10 10 12 14 11 10 9 9 10 9 9 8 7 7 7 6 6 6 6 5 5 5 5 6 4 3 3 4 4 4 4 4 4 4 4 5 7 8 6 7 8
3 3 4 5 5 6 6 8 13 11 9 9 7 9 8 4 7 11 11 10 10 9 9 8 8 6 5 4 4 3 7 5 5 5 5 4 3 3 3 3 3 3 4 5 5 5 5 6 6 7 7 8 9 10
3 3 5 5 5 5 2 2 6 8 7 7 6 6 6 4 3 3 1 1 5 7 6 7 8 8 7 6 7 7 7 6 5 4 3 3 3 2 3 3 4 4 4 4 4 5 5 6 7 8 10 10 10 11
9 9 10 7 5 6 3 3 3 4 3 3 3 3 4 3 3 3 3 4 7 10 9 10 9 8 8 8 7 7 5 5 4 4 3 1 1 0 3 3 3 4 5 5 6 6 7 7 8 9 10 11 12 12
Wind_Direction
288 284 286 292 293 291 291 289 287 284 279 274 265 251 237 236 218 198 212 208 205 243 262 268 272 266 287 272 269 169 130 108 95 199 231 251 263 257 245 214 190 180 188 203 230 245 246 259 150 253 79 25 66 28
285 286 290 291 291 289 288 285 290 283 275 265 258 237 230 220 192 191 209 209 205 223 271 274 258 260 263 268 297 256 156 54 154 231 228 279 255 294 271 272 154 203 213 191 194 207 251 110 104 95 76 81 62 46
287 291 291 290 289 288 285 286 283 281 263 249 244 227 221 210 198 194 201 187 193 254 305 265 250 249 252 250 221 223 237 141 185 36 322 266 275 307 255 259 228 261 240 259 327 263 346 57 44 69 67 58 56 47
293 294 292 289 286 284 280 276 270 264 260 247 241 228 216 208 204 196 198 199 185 165 226 262 248 234 242 243 214 202 245 286 50 114 240 282 255 259 281 295 305 336 89 300 186 270 16 52 55 24 59 50 49 39
297 296 300 289 282 275 271 268 268 262 256 250 242 214 204 204 205 201 197 191 186 197 230 255 256 243 217 223 242 222 227 244 244 237 263 268 270 265 277 291 294 355 25 249 55 41 95 103 60 33 53 41 31 27
299 309 297 296 291 283 277 269 265 255 245 241 228 208 197 195 196 176 138 193 197 207 265 272 313 227 215 204 211 221 212 216 213 224 246 245 257 285 303 320 35 55 32 37 37 357 54 97 65 36 34 33 29 44
309 307 304 302 295 289 282 269 251 237 234 228 209 196 194 192 178 163 178 193 197 195 245 278 272 226 196 168 206 208 228 181 164 173 229 257 294 8 270 271 75 18 8 36 15 354 66 43 25 26 29 31 53 56
313 313 309 300 303 290 290 278 236 219 215 200 189 187 192 173 150 177 318 179 169 174 208 256 247 162 161 151 157 123 104 159 180 189 235 253 263 199 126 51 37 15 349 43 5 5 54 31 38 31 25 18 51 47
321 319 316 318 293 263 302 225 168 169 170 169 167 145 119 121 125 166 160 165 166 156 188 221 210 156 125 91 145 145 146 181 168 218 220 203 247 53 36 22 19 18 9 355 336 44 33 44 54 46 35 32 54 53
320 313 317 338 206 233 175 142 144 146 138 128 119 97 127 149 133 123 105 91 123 238 244 247 153 132 190 166 152 152 177 202 214 210 119 174 94 82 40 39 30 15 5 12 5 13 11 19 49 59 60 56 61 72
331 7 48 76 95 155 132 138 132 126 121 111 127 92 117 133 100 127 141 170 152 188 211 213 129 145 273 175 130 171 211 172 231 166 193 147 96 64 34 36 24 12 14 29 38 46 32 35 47 76 73 69 71 76
73 83 87 89 102 112 118 122 120 106 131 128 107 94 103 128 171 173 160 143 210 157 67 163 130 101 90 24 143 173 220 246 248 162 243 92 81 59 48 44 34 27 36 46 45 52 54 56 65 75 78 75 76 79
100 94 98 108 113 121 133 150 117 110 106 94 78 83 191 164 196 187 145 160 123 72 112 141 107 87 129 39 48 207 239 37 286 207 66 61 73 54 45 43 44 39 47 57 59 64 67 68 70 78 80 76 76 72
113 115 94 94 114 99 111 98 91 90 52 58 75 68 7 77 53 31 20 64 74 49 79 121 113 88 104 90 1 212 41 283 273 184 72 82 64 65 61 68 72 67 70 76 74 74 75 79 81 80 79 81 83 80
87 101 100 92 103 113 104 88 106 87 48 54 22 56 66 101 67 42 29 87 37 3 321 129 85 78 59 100 14 140 186 101 26 58 79 73 56 61 68 76 86 91 88 86 87 86 84 84 82 77 74 76 75 72
111 84 66 75 79 87 77 66 58 70 65 63 40 91 345 108 68 43 49 63 11 341 294 181 120 92 69 82 87 20 323 52 59 69 86 88 76 65 74 73 77 85 89 90 90 90 89 87 89 90 85 80 77 75
74 91 114 82 68 64 62 64 49 51 53 49 55 15 52 63 56 45 19 6 320 316 46 59 67 64 146 81 78 12 34 85 94 82 72 71 85 88 82 77 84 93 96 97 100 101 103 106 108 102 97 98 96 91
100 137 118 97 80 62 49 48 74 73 63 44 76 68 52 37 59 46 17 3 22 60 36 64 41 44 23 42 89 108 93 84 83 92 99 99 90 84 88 91 89 91 91 94 101 109 115 115 105 106 117 121 110 99
133 159 154 111 67 75 72 51 64 84 69 92 96 87 78 70 52 42 26 47 46 49 82 62 56 47 60 70 107 120 131 129 120 103 89 79 83 87 86 86 81 78 82 87 86 82 74 65 75 90 87 85 87 80
123 113 110 88 74 89 79 65 69 82 90 95 77 68 72 64 52 49 40 33 52 58 54 46 56 60 73 77 84 88 102 126 138 130 117 112 98 75 63 91 102 115 111 116 109 114 117 91 62 46 45 46 75 79
102 100 86 101 59 58 81 84 73 103 112 87 127 91 86 71 51 47 44 28 51 36 76 78 76 62 56 65 77 75 41 55 42 101 123 111 96 103 101 91 79 76 93 103 113 90 60 66 59 62 70 70 66 60
114 115 93 52 71 64 63 37 98 102 83 118 119 90 86 68 54 38 55 50 64 38 69 107 111 99 76 65 70 77 83 79 80 82 88 112 111 101 82 69 90 69 59 36 52 67 72 59 40 87 101 91 70 66
125 74 61 84 88 70 111 317 83 118 109 125 129 90 75 74 69 136 83 70 73 62 77 83 85 92 97 94 90 86 88 97 94 93 88 87 88 84 77 62 59 56 84 60 28 77 74 87 64 62 135 174 145 138
87 54 45 70 77 101 139 85 111 96 103 102 95 94 77 101 140 74 75 71 108 120 120 133 127 125 125 112 90 78 76 92 97 84 70 99 99 71 67 70 67 51 36 39 45 61 79 64 91 315 28 347 24 355
86 16 5 85 129 131 118 124 128 111 111 117 104 110 119 182 86 84 94 131 144 126 120 141 145 118 107 104 106 88 48 55 86 91 59 60 94 132 120 94 79 54 358 321 125 107 67 14 4 22 347 357 31 343
79 17 12 70 137 126 131 125 140 123 101 90 85 114 167 104 85 88 88 138 129 137 146 139 128 118 92 80 105 88 60 36 63 95 62 38 29 2 3 353 1 110 50 14 356 324 136 21 25 346 291 230 250 303
98 87 63 333 77 107 98 72 77 82 90 99 131 140 134 87 91 90 94 109 112 103 88 63 59 89 104 96 87 78 66 57 66 85 83 68 56 43 31 28 42 52 38 27 4 345 348 147 259 287 300 298 291 246
70 25 91 51 68 32 79 69 64 71 85 61 91 61 72 75 103 121 107 110 110 106 93 78 72 83 94 100 105 101 90 90 89 105 115 98 84 72 64 55 40 95 25 21 45 15 354 344 330 313 303 314 315 314
68 94 83 40 63 55 33 33 70 56 339 322 113 95 94 60 106 112 114 118 124 125 117 108 100 101 98 96 90 87 63 35 12 51 11 22 123 88 52 44 39 15 358 324 318 282 326 310 319 305 324 313 310 310
77 50 91 52 56 58 36 34 91 86 54 79 92 106 93 84 89 109 122 134 127 113 114 119 128 125 126 121 107 94 66 49 39 16 2 35 54 53 39 24 7 9 343 336 337 327 309 317 289 279 278 279 289 307
96 89 81 66 75 96 100 87 70 76 83 93 101 104 117 115 68 47 61 86 103 116 121 117 108 110 106 78 67 111 128 62 61 83 80 69 66 47 32 359 334 333 336 330 328 321 330 325 308 312 313 319 317 312
51 80 120 107 127 152 238 111 90 108 114 104 98 121 145 127 103 117 80 119 154 115 112 132 138 97 81 86 79 89 93 98 83 78 65 50 47 14 3 352 351 347 334 332 325 323 320 321 317 318 315 315 318 315
87 93 106 103 132 164 191 157 118 112 98 91 54 30 33 40 95 103 135 45 36 136 111 98 97 107 110 110 108 104 111 119 92 86 83 66 334 121 81 343 329 329 329 326 322 319 317 316 316 316 315 313 312 312